When you browse on this site, cookies collect data to enhance your experience and personalize the content and advertising you see.
Visit our Privacy Policy to learn more. By continuing to use the site, you agree to this use of cookies and data.
  • In France
  • List of Countries
  • For 7 days
  • Water Temperature
  • Weather Map
  • Weather Widgets
  • user-avatar
    Login

    Hourly Weather Kanye

    Today, 9 December, Monday

    Time Temperature Precipitation Wind Pressure Humidity
    00:00 +19°C° 0.1 mm 3 mps 646 mmHg 86%
    01:00 +19°C° 0.1 mm 3 mps 646 mmHg 90%
    02:00 +18°C° 0 mm 3 mps 646 mmHg 90%
    03:00 +18°C° 0 mm 3 mps 646 mmHg 92%
    04:00 +18°C° 0 mm 3 mps 646 mmHg 94%
    05:00 +17°C° 0 mm 3 mps 646 mmHg 97%
    06:00 +18°C° 0 mm 4 mps 646 mmHg 93%
    07:00 +19°C° 0 mm 4 mps 647 mmHg 89%
    08:00 +20°C° 0 mm 6 mps 648 mmHg 83%
    09:00 +21°C° 0.4 mm 5 mps 648 mmHg 80%
    10:00 +22°C° 0.4 mm 5 mps 648 mmHg 76%
    11:00 +23°C° 0.4 mm 5 mps 648 mmHg 72%
    12:00 +25°C° 0.6 mm 4 mps 648 mmHg 67%
    13:00 +26°C° 0.6 mm 4 mps 648 mmHg 61%
    14:00 +28°C° 0 mm 3 mps 648 mmHg 53%
    15:00 +27°C° 1.2 mm 3 mps 647 mmHg 56%
    16:00 +26°C° 1.2 mm 4 mps 647 mmHg 59%
    17:00 +26°C° 1.2 mm 4 mps 646 mmHg 62%
    18:00 +23°C° 2.4 mm 5 mps 647 mmHg 69%
    19:00 +21°C° 2.4 mm 6 mps 647 mmHg 77%
    20:00 +18°C° 2.4 mm 8 mps 647 mmHg 84%
    21:00 +19°C° 2.2 mm 6 mps 648 mmHg 83%
    22:00 +19°C° 2.2 mm 4 mps 648 mmHg 81%
    23:00 +18°C° 2.2 mm 2 mps 648 mmHg 80%

    Tomorrow, 10 December, Tuesday

    Time Temperature Precipitation Wind Pressure Humidity
    00:00 +18°C° 0 mm 3 mps 648 mmHg 82%
    01:00 +18°C° 0 mm 3 mps 648 mmHg 85%
    02:00 +18°C° 0 mm 4 mps 647 mmHg 87%
    03:00 +17°C° 0.1 mm 4 mps 647 mmHg 89%
    04:00 +17°C° 0.1 mm 3 mps 647 mmHg 91%
    05:00 +17°C° 0.1 mm 3 mps 647 mmHg 93%
    06:00 +18°C° 0.2 mm 3 mps 648 mmHg 89%
    07:00 +19°C° 0.2 mm 3 mps 648 mmHg 85%
    08:00 +20°C° 0.2 mm 4 mps 649 mmHg 81%
    09:00 +22°C° 0.5 mm 3 mps 650 mmHg 72%
    10:00 +25°C° 0.5 mm 3 mps 650 mmHg 63%
    11:00 +26°C° 0.5 mm 3 mps 650 mmHg 54%
    12:00 +27°C° 0.3 mm 3 mps 650 mmHg 49%
    13:00 +28°C° 0.3 mm 3 mps 650 mmHg 45%
    14:00 +28°C° 0.3 mm 3 mps 649 mmHg 40%
    15:00 +27°C° 0.4 mm 3 mps 649 mmHg 46%
    16:00 +26°C° 0.4 mm 3 mps 648 mmHg 52%
    17:00 +24°C° 0.4 mm 3 mps 647 mmHg 58%
    18:00 +23°C° 0.1 mm 2 mps 648 mmHg 63%
    19:00 +23°C° 0.1 mm 2 mps 648 mmHg 68%
    20:00 +21°C° 0.1 mm 2 mps 648 mmHg 72%
    21:00 +20°C° 0.1 mm 2 mps 648 mmHg 75%
    22:00 +20°C° 0.1 mm 3 mps 649 mmHg 77%
    23:00 +20°C° 0.1 mm 3 mps 649 mmHg 80%

    Day after tomorrow, 11 December, Wednesday

    Time Temperature Precipitation Wind Pressure Humidity
    00:00 +19°C° 0.3 mm 3 mps 649 mmHg 83%
    01:00 +19°C° 0.3 mm 3 mps 648 mmHg 86%
    02:00 +18°C° 0.3 mm 2 mps 648 mmHg 89%
    03:00 +18°C° 0 mm 3 mps 648 mmHg 91%
    04:00 +17°C° 0 mm 3 mps 648 mmHg 94%
    05:00 +17°C° 0 mm 3 mps 647 mmHg 96%
    06:00 +18°C° 0 mm 3 mps 648 mmHg 92%
    07:00 +18°C° 0 mm 3 mps 648 mmHg 89%
    08:00 +19°C° 0 mm 3 mps 649 mmHg 85%
    09:00 +21°C° 0 mm 3 mps 649 mmHg 74%
    10:00 +24°C° 0 mm 3 mps 650 mmHg 64%
    11:00 +26°C° 0 mm 2 mps 650 mmHg 53%
    12:00 +27°C° 0 mm 2 mps 650 mmHg 46%
    13:00 +28°C° 0 mm 1 mps 650 mmHg 38%
    14:00 +30°C° 0 mm 1 mps 650 mmHg 30%
    15:00 +30°C° 0 mm 1 mps 649 mmHg 30%
    16:00 +30°C° 0 mm 1 mps 649 mmHg 29%
    17:00 +30°C° 0 mm 2 mps 649 mmHg 28%
    18:00 +28°C° 0 mm 1 mps 649 mmHg 33%
    19:00 +27°C° 0 mm 1 mps 649 mmHg 38%
    20:00 +25°C° 0 mm 1 mps 648 mmHg 43%
    21:00 +25°C° 0 mm 2 mps 649 mmHg 47%
    22:00 +24°C° 0 mm 2 mps 649 mmHg 51%
    23:00 +22°C° 0 mm 3 mps 649 mmHg 55%

    12 December, Thursday

    Time Temperature Precipitation Wind Pressure Humidity
    00:00 +21°C° 0 mm 3 mps 648 mmHg 55%
    01:00 +21°C° 0 mm 3 mps 648 mmHg 56%
    02:00 +21°C° 0 mm 2 mps 648 mmHg 57%
    03:00 +20°C° 0 mm 2 mps 648 mmHg 57%
    04:00 +20°C° 0 mm 2 mps 648 mmHg 57%
    05:00 +20°C° 0 mm 2 mps 648 mmHg 58%
    06:00 +21°C° 0 mm 2 mps 649 mmHg 54%
    07:00 +24°C° 0 mm 3 mps 649 mmHg 50%
    08:00 +26°C° 0 mm 3 mps 650 mmHg 46%
    09:00 +28°C° 0 mm 3 mps 651 mmHg 39%
    10:00 +30°C° 0 mm 3 mps 651 mmHg 32%
    11:00 +31°C° 0 mm 3 mps 651 mmHg 25%
    12:00 +32°C° 0 mm 2 mps 651 mmHg 23%
    13:00 +32°C° 0 mm 2 mps 650 mmHg 21%
    14:00 +34°C° 0 mm 2 mps 650 mmHg 19%
    15:00 +34°C° 0 mm 2 mps 650 mmHg 19%
    16:00 +34°C° 0 mm 2 mps 650 mmHg 19%
    17:00 +34°C° 0 mm 2 mps 649 mmHg 20%
    18:00 +31°C° 0 mm 1 mps 649 mmHg 24%
    19:00 +28°C° 0 mm 1 mps 649 mmHg 28%
    20:00 +26°C° 0 mm 1 mps 648 mmHg 32%
    21:00 +26°C° 0 mm 1 mps 649 mmHg 33%
    22:00 +25°C° 0 mm 2 mps 649 mmHg 34%
    23:00 +25°C° 0 mm 2 mps 649 mmHg 34%

    13 December, Friday

    Time Temperature Precipitation Wind Pressure Humidity
    00:00 +24°C° 0 mm 2 mps 649 mmHg 38%
    01:00 +24°C° 0 mm 2 mps 649 mmHg 41%
    02:00 +23°C° 0 mm 1 mps 649 mmHg 45%
    03:00 +21°C° 0 mm 2 mps 649 mmHg 48%
    04:00 +21°C° 0 mm 3 mps 649 mmHg 51%
    05:00 +20°C° 0 mm 4 mps 649 mmHg 54%
    06:00 +21°C° 0 mm 5 mps 649 mmHg 57%
    07:00 +22°C° 0 mm 6 mps 650 mmHg 61%
    08:00 +23°C° 0 mm 7 mps 651 mmHg 65%
    09:00 +26°C° 0 mm 7 mps 651 mmHg 60%
    10:00 +27°C° 0 mm 7 mps 651 mmHg 55%
    11:00 +29°C° 0 mm 7 mps 652 mmHg 50%
    12:00 +30°C° 0 mm 6 mps 652 mmHg 43%
    13:00 +33°C° 0 mm 5 mps 651 mmHg 36%
    14:00 +34°C° 0 mm 5 mps 651 mmHg 30%
    15:00 +34°C° 0 mm 4 mps 651 mmHg 30%
    16:00 +33°C° 0 mm 4 mps 650 mmHg 30%
    17:00 +33°C° 0 mm 4 mps 650 mmHg 30%
    18:00 +30°C° 0 mm 4 mps 650 mmHg 36%
    19:00 +28°C° 0 mm 4 mps 649 mmHg 42%
    20:00 +26°C° 0 mm 3 mps 649 mmHg 48%
    21:00 +26°C° 0 mm 3 mps 649 mmHg 50%
    22:00 +25°C° 0 mm 2 mps 649 mmHg 52%
    23:00 +24°C° 0 mm 2 mps 649 mmHg 55%

    14 December, Saturday

    Time Temperature Precipitation Wind Pressure Humidity
    00:00 +24°C° 0 mm 2 mps 649 mmHg 56%
    01:00 +24°C° 0 mm 1 mps 649 mmHg 57%
    02:00 +23°C° 0 mm 1 mps 649 mmHg 58%
    03:00 +23°C° 0 mm 2 mps 649 mmHg 59%
    04:00 +21°C° 0 mm 3 mps 649 mmHg 61%
    05:00 +21°C° 0 mm 4 mps 649 mmHg 63%
    06:00 +22°C° 0 mm 5 mps 650 mmHg 60%
    07:00 +24°C° 0 mm 6 mps 650 mmHg 56%
    08:00 +26°C° 0 mm 7 mps 651 mmHg 53%
    09:00 +28°C° 0 mm 7 mps 651 mmHg 47%
    10:00 +30°C° 0 mm 6 mps 651 mmHg 41%
    11:00 +33°C° 0 mm 6 mps 652 mmHg 36%
    12:00 +34°C° 0 mm 6 mps 651 mmHg 31%
    13:00 +35°C° 0 mm 6 mps 651 mmHg 26%
    14:00 +35°C° 0 mm 5 mps 651 mmHg 22%
    15:00 +35°C° 0 mm 5 mps 650 mmHg 22%
    16:00 +35°C° 0 mm 5 mps 650 mmHg 23%
    17:00 +35°C° 0 mm 5 mps 649 mmHg 23%
    18:00 +33°C° 0 mm 4 mps 649 mmHg 28%
    19:00 +30°C° 0 mm 3 mps 649 mmHg 32%
    20:00 +28°C° 0 mm 2 mps 649 mmHg 36%
    21:00 +27°C° 0 mm 2 mps 649 mmHg 35%
    22:00 +27°C° 0 mm 2 mps 649 mmHg 34%
    23:00 +26°C° 0 mm 2 mps 650 mmHg 33%
    Show more